This is the latest recevied weather packets stored in our database for station/object M0SDM-10. If no packets are shown the sender has not sent any weather packets the latest 10 day(s).
| Time | Temp. | Humidity | Pressure | Rain* | Wind** | Luminosity | Snow |
|---|---|---|---|---|---|---|---|
| 1777593453 | 13.89° C | 57% | 1011.3 hPa | - | - | - | - |
| 1777591653 | 13.89° C | 57% | 1011.4 hPa | - | - | - | - |
| 1777589852 | 14.44° C | 56% | 1011.5 hPa | - | - | - | - |
| 1777588052 | 14.44° C | 56% | 1011.5 hPa | - | - | - | - |
| 1777586252 | 15° C | 55% | 1011.5 hPa | - | - | - | - |
| 1777584452 | 15° C | 55% | 1011.5 hPa | - | - | - | - |
| 1777582652 | 15.56° C | 54% | 1011.6 hPa | - | - | - | - |
| 1777580852 | 15.56° C | 55% | 1011.6 hPa | - | - | - | - |
| 1777579052 | 15.56° C | 55% | 1011.6 hPa | - | - | - | - |
| 1777577252 | 16.11° C | 52% | 1011.5 hPa | - | - | - | - |
| 1777575451 | 16.11° C | 52% | 1011.3 hPa | - | - | - | - |
| 1777573651 | 16.67° C | 51% | 1011 hPa | - | - | - | - |
| 1777571851 | 16.67° C | 51% | 1010.9 hPa | - | - | - | - |
| 1777570051 | 16.67° C | 46% | 1010.9 hPa | - | - | - | - |
| 1777568251 | 16.67° C | 45% | 1010.9 hPa | - | - | - | - |
| 1777566451 | 16.67° C | 45% | 1011 hPa | - | - | - | - |
| 1777564650 | 16.67° C | 46% | 1011 hPa | - | - | - | - |
| 1777562850 | 17.78° C | 33% | 1011.2 hPa | - | - | - | - |
| 1777561050 | 16.11° C | 50% | 1011.4 hPa | - | - | - | - |
| 1777559250 | 16.11° C | 50% | 1011.7 hPa | - | - | - | - |
| 1777557450 | 15.56° C | 50% | 1012 hPa | - | - | - | - |
| 1777555650 | 15.56° C | 51% | 1012.2 hPa | - | - | - | - |
| 1777553850 | 15.56° C | 53% | 1012.5 hPa | - | - | - | - |
| 1777552049 | 15° C | 56% | 1012.6 hPa | - | - | - | - |
| 1777550249 | 15° C | 57% | 1012.8 hPa | - | - | - | - |
* Rain since midnight (hover to see other rain measurements)
** Current wind speed in m/s (hover to see current wind gust speed)